Marion, IN

9:44 PM EST on December 03, 2016 (GMT -0500)
Marion Municipal

Weather History for KMZZ - April, 2014

Change the Weather History Date:

Saturday, April 5, 2014

  Actual Average (KMIE) Record (KMIE)
Temperature  
Mean Temperature 40 °F 48 °F  
Max Temperature 47 °F 58 °F 80 °F (1986)
Min Temperature 32 °F 37 °F 20 °F (1993)
Degree Days  
Heating Degree Days 26 18  
Month to date heating degree days 93  
Since 1 July heating degree days 5263  
Cooling Degree Days 0 0  
Month to date cooling degree days 0  
Year to date cooling degree days 1  
Moisture  
Dew Point 27 °F    
Average Humidity 64    
Maximum Humidity 78    
Minimum Humidity 44    
Precipitation  
Precipitation 0.00 in 0.12 in 1.50 in (2009)
Month to date precipitation 0.60  
Year to date precipitation 8.09  
Sea Level Pressure  
Sea Level Pressure 30.13 in    
Wind  
Wind Speed 13 mph (NW)    
Max Wind Speed 24 mph    
Max Gust Speed 31 mph    
Visibility 9 miles    
Events      
T = Trace of Precipitation, MM = Missing Value Source: NWS Daily Summary

Daily Weather History Graph

Daily Weather History Graph

Search for Another Location

Airport or City:

Trip Planner

Search our weather history database for the weather conditions in past years. The results will help you decide how hot, cold, wet, or windy it might be!

Date:

Astronomy

Apr. 05, 2014 Rise Set
Actual Time 7:19 AM EDT 8:11 PM EDT
Civil Twilight 6:52 AM EDT 8:39 PM EDT
Nautical Twilight 6:19 AM EDT 9:12 PM EDT
Astronomical Twilight 5:45 AM EDT 9:46 PM EDT
Moon 11:26 AM EDT (4/5) 1:21 AM EDT (4/5)
Length of Visible Light 13h 46m
Length of Day
12h 51m
Waxing Crescent, 34% of the Moon is Illuminated
Apr 5
Waxing Crescent
Apr 7
First Quarter
Apr 15
Full
Apr 22
Last Quarter
Apr 29
New

Hourly Weather History & Observations

Time (EDT) Temp. Windchill Dew Point Humidity Pressure Visibility Wind Dir Wind Speed Gust Speed Precip Events Conditions
12:15 AM 35.2 °F 23.5 °F 27.5 °F 73% 29.96 in 10.0 mi West 23.0 mph 27.6 mph N/A   Overcast
12:35 AM 35.1 °F 23.5 °F 27.5 °F 74% 29.97 in 10.0 mi West 21.9 mph 31.1 mph N/A   Overcast
12:55 AM 35.1 °F 24.1 °F 27.9 °F 75% 29.98 in 10.0 mi West 19.6 mph - N/A   Overcast
1:15 AM 34.9 °F 22.7 °F 28.0 °F 76% 29.99 in 7.0 mi West 24.2 mph 27.6 mph N/A   Overcast
1:35 AM 34.9 °F 23.0 °F 28.2 °F 77% 29.99 in 10.0 mi West 23.0 mph 29.9 mph N/A   Overcast
1:55 AM 34.9 °F 24.9 °F 28.4 °F 77% 30.00 in 7.0 mi West 16.1 mph 24.2 mph N/A   Overcast
2:15 AM 34.9 °F 24.2 °F 28.6 °F 78% 30.01 in 7.0 mi West 18.4 mph 23.0 mph N/A   Overcast
2:35 AM 34.9 °F 24.6 °F 28.8 °F 78% 30.01 in 7.0 mi West 17.3 mph - N/A   Overcast
2:55 AM 34.9 °F 25.3 °F 28.8 °F 78% 30.01 in 10.0 mi West 15.0 mph - N/A   Overcast
3:15 AM 34.9 °F 24.2 °F 28.6 °F 78% 30.02 in 7.0 mi WNW 18.4 mph 23.0 mph N/A   Overcast
3:35 AM 35.1 °F 24.8 °F 27.3 °F 73% 30.03 in 7.0 mi WNW 17.3 mph 28.8 mph N/A   Overcast
3:55 AM 34.5 °F 24.1 °F 26.2 °F 72% 30.03 in 10.0 mi WNW 17.3 mph 23.0 mph N/A   Overcast
4:15 AM 34.2 °F 24.4 °F 26.4 °F 73% 30.04 in 10.0 mi WNW 15.0 mph 21.9 mph N/A   Overcast
4:35 AM 34.0 °F 24.2 °F 26.4 °F 74% 30.04 in 7.0 mi WNW 15.0 mph - N/A   Overcast
4:55 AM 34.0 °F 25.0 °F 26.4 °F 74% 30.05 in 10.0 mi WNW 12.7 mph - N/A   Overcast
5:15 AM 33.8 °F 22.8 °F 26.4 °F 74% 30.06 in 10.0 mi NW 18.4 mph - N/A   Overcast
5:35 AM 33.4 °F 22.7 °F 24.6 °F 70% 30.08 in 10.0 mi NW 17.3 mph 21.9 mph N/A   Overcast
5:55 AM 32.9 °F 24.1 °F 24.6 °F 72% 30.08 in 10.0 mi NW 11.5 mph - N/A   Overcast
6:15 AM 32.9 °F 23.7 °F 24.1 °F 70% 30.09 in 10.0 mi NW 12.7 mph 16.1 mph N/A   Overcast
6:35 AM 32.9 °F 25.3 °F 24.1 °F 70% 30.10 in 10.0 mi NW 9.2 mph - N/A   Overcast
6:55 AM 32.4 °F 26.0 °F 24.1 °F 72% 30.11 in 7.0 mi NW 6.9 mph - N/A   Scattered Clouds
7:15 AM 32.2 °F 27.7 °F 23.7 °F 71% 30.11 in 10.0 mi NNW 4.6 mph - N/A   Clear
7:35 AM 32.2 °F 26.7 °F 23.9 °F 72% 30.13 in 7.0 mi NNW 5.8 mph - N/A   Mostly Cloudy
7:55 AM 32.4 °F 29.1 °F 24.4 °F 73% 30.14 in 10.0 mi NW 3.5 mph - N/A   Overcast
8:15 AM 32.2 °F 27.7 °F 25.7 °F 77% 30.14 in 10.0 mi WNW 4.6 mph - N/A   Overcast
8:35 AM 32.5 °F 28.1 °F 25.7 °F 76% 30.15 in 7.0 mi NW 4.6 mph - N/A   Overcast
8:55 AM 32.9 °F 27.5 °F 26.1 °F 76% 30.16 in 10.0 mi WNW 5.8 mph - N/A   Overcast
9:15 AM 33.3 °F 27.9 °F 26.2 °F 75% 30.16 in 10.0 mi WNW 5.8 mph - N/A   Overcast
9:35 AM 34.0 °F 26.6 °F 26.4 °F 74% 30.17 in 10.0 mi WNW 9.2 mph - N/A   Overcast
9:55 AM 34.9 °F 27.1 °F 26.4 °F 71% 30.18 in 10.0 mi NW 10.4 mph 17.3 mph N/A   Overcast
10:15 AM 35.4 °F 27.8 °F 25.9 °F 68% 30.18 in 7.0 mi NW 10.4 mph - N/A   Overcast
10:35 AM 36.1 °F 28.7 °F 25.9 °F 66% 30.19 in 10.0 mi NW 10.4 mph - N/A   Overcast
10:55 AM 37.2 °F 30.0 °F 26.2 °F 65% 30.19 in 10.0 mi NW 10.4 mph 18.4 mph N/A   Mostly Cloudy
11:15 AM 38.1 °F 31.2 °F 27.0 °F 64% 30.19 in 7.0 mi NW 10.4 mph - N/A   Mostly Cloudy
11:35 AM 38.1 °F 30.7 °F 27.0 °F 64% 30.20 in 7.0 mi WNW 11.5 mph - N/A   Mostly Cloudy
11:55 AM 38.8 °F 32.6 °F 27.7 °F 64% 30.20 in 7.0 mi West 9.2 mph 16.1 mph N/A   Overcast
12:15 PM 39.2 °F 32.5 °F 27.3 °F 62% 30.20 in 7.0 mi WNW 10.4 mph - N/A   Mostly Cloudy
12:35 PM 40.3 °F 34.9 °F 28.8 °F 63% 30.20 in 7.0 mi WNW 8.1 mph - N/A   Mostly Cloudy
12:55 PM 41.2 °F 34.5 °F 28.2 °F 60% 30.19 in 10.0 mi NW 11.5 mph 17.3 mph N/A   Scattered Clouds
1:15 PM 42.1 °F 37.1 °F 29.1 °F 60% 30.19 in 10.0 mi WNW 8.1 mph - N/A   Scattered Clouds
1:35 PM 42.6 °F 37.8 °F 28.4 °F 57% 30.19 in 10.0 mi WNW 8.1 mph - N/A   Mostly Cloudy
1:55 PM 43.3 °F 37.7 °F 28.2 °F 55% 30.19 in 10.0 mi WNW 10.4 mph - N/A   Scattered Clouds
2:15 PM 44.2 °F 42.7 °F 28.4 °F 54% 30.19 in 10.0 mi NW 3.5 mph 9.2 mph N/A   Scattered Clouds
2:35 PM 44.6 °F 40.2 °F 29.1 °F 55% 30.18 in 10.0 mi NW 8.1 mph - N/A   Scattered Clouds
2:55 PM 44.8 °F 39.4 °F 28.0 °F 52% 30.19 in 10.0 mi NW 10.4 mph - N/A   Scattered Clouds
3:15 PM 45.1 °F 41.4 °F 28.6 °F 52% 30.18 in 7.0 mi NW 6.9 mph 16.1 mph N/A   Scattered Clouds
3:35 PM 45.9 °F 42.9 °F 29.3 °F 52% 30.18 in 10.0 mi WNW 5.8 mph - N/A   Mostly Cloudy
3:55 PM 46.2 °F 42.2 °F 28.2 °F 50% 30.18 in 7.0 mi WNW 8.1 mph - N/A   Scattered Clouds
4:15 PM 46.6 °F - 28.6 °F 50% 30.17 in 10.0 mi NW 4.6 mph - N/A   Clear
4:35 PM 46.9 °F - 28.4 °F 49% 30.16 in 10.0 mi North 4.6 mph - N/A   Clear
4:55 PM 47.1 °F - 28.4 °F 48% 30.16 in 10.0 mi NNW 5.8 mph - N/A   Clear
5:15 PM 47.1 °F - 28.6 °F 49% 30.16 in 10.0 mi NNW 5.8 mph - N/A   Clear
5:35 PM 47.3 °F - 27.9 °F 47% 30.16 in 7.0 mi NNW 4.6 mph - N/A   Clear
5:55 PM 47.5 °F - 28.2 °F 47% 30.16 in 10.0 mi NNW 4.6 mph - N/A   Clear
6:15 PM 47.5 °F - 27.1 °F 45% 30.16 in 7.0 mi Calm Calm - N/A   Clear
6:35 PM 47.5 °F - 26.6 °F 44% 30.16 in 10.0 mi Calm Calm - N/A   Clear
6:55 PM 47.5 °F - 27.3 °F 46% 30.16 in 7.0 mi North 3.5 mph - N/A   Clear
7:15 PM 47.1 °F - 27.3 °F 46% 30.17 in 10.0 mi Calm Calm - N/A   Clear
7:35 PM 46.8 °F - 27.3 °F 47% 30.17 in 10.0 mi Calm Calm - N/A   Clear
7:55 PM 45.9 °F - 28.4 °F 51% 30.17 in 7.0 mi Calm Calm - N/A   Clear
8:15 PM 45.0 °F 43.5 °F 28.0 °F 52% 30.17 in 7.0 mi West 3.5 mph - N/A   Clear
8:35 PM 43.3 °F - 29.7 °F 59% 30.18 in 10.0 mi Calm Calm - N/A   Clear
8:55 PM 42.4 °F - 29.8 °F 61% 30.18 in 7.0 mi Calm Calm - N/A   Clear
9:15 PM 42.3 °F - 28.8 °F 59% 30.18 in 7.0 mi Calm Calm - N/A   Clear
9:35 PM 41.4 °F - 28.8 °F 61% 30.18 in 7.0 mi Calm Calm - N/A   Clear
9:55 PM 40.6 °F - 29.8 °F 65% 30.19 in 10.0 mi Calm Calm - N/A   Clear
10:15 PM 39.2 °F - 28.9 °F 67% 30.19 in 7.0 mi Calm Calm - N/A   Clear
10:35 PM 37.8 °F - 28.4 °F 69% 30.19 in 7.0 mi Calm Calm - N/A   Clear
10:55 PM 36.7 °F - 29.7 °F 76% 30.19 in 10.0 mi Calm Calm - N/A   Clear
11:15 PM 36.7 °F - 29.3 °F 75% 30.19 in 10.0 mi Calm Calm - N/A   Clear
11:35 PM 36.3 °F - 28.8 °F 74% 30.19 in 7.0 mi Calm Calm - N/A   Clear